Location: Carrières
(48.9495°N, 2.0407°E)
Time: 20:28:47
(UTC+00:00)

Transit 2A Rocket - Pass Details

Date: 25 April 2024
Orbit: 585 x 908 km, 66.7° (Epoch: 18 May)

Event Time Altitude Azimuth Distance (km) Brightness Sun altitude
Rises 18:15:01 0° 325° (NW) 3,281 9.1 6.1°
Reaches altitude 10° 18:17:22 10° 328° (NNW) 2,397 8.4 5.7°
Maximum altitude 18:22:56 68° 51° (NE) 921 5.4 4.8°
Drops below altitude 10° 18:28:52 10° 135° (SE) 2,552 7.2 3.9°
Sets 18:31:26 0° 138° (SE) 3,510 7.9 3.5°
